TimeCST,TemperatureF,Dew PointF,Humidity,Sea Level PressureIn,VisibilityMPH,Wind Direction,Wind SpeedMPH,Gust SpeedMPH,PrecipitationIn,Events,Conditions,WindDirDegrees,DateUTC
12:15 AM,17.6,10.4,73,30.55,10.0,SW,4.6,-,N/A,,Clear,220,2013-12-12 06:15:00
12:35 AM,17.6,8.6,68,30.54,10.0,SW,5.8,-,N/A,,Clear,220,2013-12-12 06:35:00
12:55 AM,15.8,8.6,73,30.53,10.0,Calm,Calm,-,N/A,,Clear,0,2013-12-12 06:55:00
1:15 AM,14.0,8.6,79,30.53,10.0,Calm,Calm,-,N/A,,Clear,0,2013-12-12 07:15:00
1:35 AM,17.6,10.4,73,30.52,10.0,SW,3.5,-,N/A,,Clear,230,2013-12-12 07:35:00
1:55 AM,17.6,10.4,73,30.52,10.0,SSW,6.9,-,N/A,,Clear,210,2013-12-12 07:55:00
2:15 AM,24.8,14.0,64,30.51,10.0,SSW,8.1,-,N/A,,Clear,200,2013-12-12 08:15:00
2:35 AM,26.6,14.0,59,30.50,10.0,SSW,9.2,-,N/A,,Clear,200,2013-12-12 08:35:00
2:55 AM,26.6,14.0,59,30.50,10.0,SSW,9.2,-,N/A,,Clear,200,2013-12-12 08:55:00
3:15 AM,26.6,14.0,59,30.49,10.0,SSW,9.2,-,N/A,,Clear,210,2013-12-12 09:15:00
3:35 AM,26.6,14.0,59,30.49,10.0,SW,8.1,-,N/A,,Clear,220,2013-12-12 09:35:00
3:55 AM,23.0,14.0,68,30.49,10.0,SW,10.4,-,N/A,,Clear,220,2013-12-12 09:55:00
4:15 AM,23.0,14.0,68,30.48,10.0,SSW,11.5,-,N/A,,Clear,210,2013-12-12 10:15:00
4:35 AM,21.2,14.0,74,30.47,10.0,SW,10.4,-,N/A,,Clear,220,2013-12-12 10:35:00
4:55 AM,23.0,14.0,68,30.46,10.0,SSW,8.1,-,N/A,,Clear,210,2013-12-12 10:55:00
5:15 AM,23.0,14.0,68,30.47,10.0,SSW,9.2,-,N/A,,Clear,210,2013-12-12 11:15:00
5:35 AM,23.0,14.0,68,30.45,10.0,SSW,10.4,-,N/A,,Clear,210,2013-12-12 11:35:00
5:55 AM,23.0,14.0,68,30.45,10.0,SSW,11.5,-,N/A,,Clear,210,2013-12-12 11:55:00
6:15 AM,24.8,15.8,69,30.45,10.0,SW,11.5,-,N/A,,Clear,220,2013-12-12 12:15:00
6:35 AM,24.8,15.8,69,30.44,10.0,SSW,11.5,-,N/A,,Clear,210,2013-12-12 12:35:00
6:55 AM,24.8,17.6,74,30.45,10.0,SSW,15.0,-,N/A,,Clear,210,2013-12-12 12:55:00
7:15 AM,23.0,15.8,74,30.45,10.0,SW,11.5,-,N/A,,Clear,220,2013-12-12 13:15:00
7:35 AM,23.0,17.6,80,30.45,10.0,SSW,13.8,-,N/A,,Clear,210,2013-12-12 13:35:00
7:55 AM,24.8,17.6,74,30.45,10.0,SW,12.7,-,N/A,,Clear,220,2013-12-12 13:55:00
8:15 AM,24.8,17.6,74,30.45,10.0,SSW,9.2,-,N/A,,Clear,210,2013-12-12 14:15:00
8:35 AM,26.6,17.6,69,30.45,10.0,SW,10.4,-,N/A,,Clear,220,2013-12-12 14:35:00
8:55 AM,30.2,19.4,64,30.45,10.0,SSW,10.4,16.1,N/A,,Clear,210,2013-12-12 14:55:00
9:15 AM,32.0,19.4,60,30.45,10.0,SSW,12.7,18.4,N/A,,Clear,210,2013-12-12 15:15:00
9:35 AM,32.0,19.4,60,30.45,10.0,SSW,16.1,19.6,N/A,,Clear,210,2013-12-12 15:35:00
9:55 AM,33.8,19.4,56,30.45,10.0,SSW,17.3,27.6,N/A,,Clear,210,2013-12-12 15:55:00
10:15 AM,35.6,19.4,52,30.46,10.0,SSW,17.3,24.2,N/A,,Clear,210,2013-12-12 16:15:00
10:35 AM,37.4,21.2,52,30.45,10.0,SSW,18.4,21.9,N/A,,Clear,200,2013-12-12 16:35:00
10:55 AM,41.0,21.2,45,30.43,10.0,SSW,18.4,21.9,N/A,,Clear,210,2013-12-12 16:55:00
11:15 AM,42.8,21.2,42,30.42,10.0,SSW,18.4,-,N/A,,Clear,210,2013-12-12 17:15:00
11:35 AM,44.6,21.2,39,30.41,10.0,SSW,18.4,23.0,N/A,,Clear,210,2013-12-12 17:35:00
11:55 AM,44.6,21.2,39,30.40,10.0,SSW,17.3,23.0,N/A,,Clear,200,2013-12-12 17:55:00
12:15 PM,46.4,19.4,34,30.38,10.0,SSW,17.3,24.2,N/A,,Clear,200,2013-12-12 18:15:00
12:35 PM,46.4,19.4,34,30.35,10.0,SSW,19.6,24.2,N/A,,Clear,200,2013-12-12 18:35:00
12:55 PM,46.4,19.4,34,30.33,10.0,SSW,20.7,-,N/A,,Clear,200,2013-12-12 18:55:00
1:15 PM,46.4,19.4,34,30.31,10.0,SSW,19.6,25.3,N/A,,Clear,200,2013-12-12 19:15:00
1:35 PM,50.0,19.4,30,30.30,10.0,South,18.4,23.0,N/A,,Clear,190,2013-12-12 19:35:00
1:55 PM,50.0,19.4,30,30.28,10.0,South,18.4,25.3,N/A,,Clear,190,2013-12-12 19:55:00
2:15 PM,51.8,19.4,28,30.27,10.0,SSW,20.7,25.3,N/A,,Clear,200,2013-12-12 20:15:00
2:35 PM,50.0,19.4,30,30.26,10.0,South,18.4,23.0,N/A,,Clear,190,2013-12-12 20:35:00
2:55 PM,50.0,19.4,30,30.26,10.0,South,16.1,20.7,N/A,,Clear,180,2013-12-12 20:55:00
3:15 PM,50.0,19.4,30,30.25,10.0,South,16.1,21.9,N/A,,Clear,180,2013-12-12 21:15:00
3:35 PM,46.4,19.4,34,30.25,10.0,South,18.4,25.3,N/A,,Clear,190,2013-12-12 21:35:00
3:55 PM,46.4,19.4,34,30.23,10.0,South,16.1,20.7,N/A,,Clear,190,2013-12-12 21:55:00
4:15 PM,46.4,19.4,34,30.23,10.0,South,15.0,-,N/A,,Clear,190,2013-12-12 22:15:00
4:35 PM,42.8,19.4,39,30.23,10.0,South,12.7,18.4,N/A,,Clear,190,2013-12-12 22:35:00
4:55 PM,41.0,19.4,42,30.21,10.0,South,12.7,17.3,N/A,,Clear,180,2013-12-12 22:55:00
5:15 PM,41.0,19.4,42,30.20,10.0,South,12.7,-,N/A,,Clear,170,2013-12-12 23:15:00
5:35 PM,39.2,19.4,45,30.20,10.0,South,11.5,-,N/A,,Clear,180,2013-12-12 23:35:00
5:55 PM,37.4,21.2,52,30.19,10.0,South,10.4,-,N/A,,Clear,180,2013-12-12 23:55:00
6:15 PM,37.4,21.2,52,30.19,10.0,South,12.7,-,N/A,,Clear,190,2013-12-13 00:15:00
6:35 PM,37.4,21.2,52,30.17,10.0,South,15.0,18.4,N/A,,Clear,190,2013-12-13 00:35:00
6:55 PM,35.6,21.2,56,30.17,10.0,SSW,8.1,-,N/A,,Clear,200,2013-12-13 00:55:00
7:15 PM,35.6,23.0,60,30.16,10.0,South,10.4,-,N/A,,Clear,190,2013-12-13 01:15:00
7:35 PM,35.6,23.0,60,30.16,10.0,SSW,15.0,18.4,N/A,,Clear,200,2013-12-13 01:35:00
7:55 PM,35.6,24.8,65,30.15,10.0,SSW,16.1,23.0,N/A,,Clear,200,2013-12-13 01:55:00
8:15 PM,35.6,24.8,65,30.14,10.0,South,9.2,18.4,N/A,,Clear,190,2013-12-13 02:15:00
8:35 PM,33.8,24.8,70,30.13,10.0,South,10.4,-,N/A,,Clear,180,2013-12-13 02:35:00
8:55 PM,35.6,26.6,70,30.12,10.0,South,11.5,18.4,N/A,,Clear,190,2013-12-13 02:55:00
9:15 PM,35.6,26.6,70,30.12,10.0,SSW,19.6,-,N/A,,Clear,200,2013-12-13 03:15:00
9:35 PM,35.6,26.6,70,30.10,10.0,SSW,18.4,26.5,N/A,,Clear,200,2013-12-13 03:35:00
9:55 PM,37.4,26.6,65,30.09,10.0,SSW,19.6,25.3,N/A,,Clear,200,2013-12-13 03:55:00
10:15 PM,37.4,26.6,65,30.09,10.0,SSW,23.0,27.6,N/A,,Clear,210,2013-12-13 04:15:00
10:35 PM,39.2,26.6,61,30.09,10.0,SSW,21.9,28.8,N/A,,Scattered Clouds,200,2013-12-13 04:35:00
10:55 PM,41.0,26.6,57,30.08,10.0,SSW,18.4,26.5,N/A,,Mostly Cloudy,210,2013-12-13 04:55:00
11:15 PM,41.0,26.6,57,30.06,10.0,SSW,23.0,31.1,N/A,,Overcast,200,2013-12-13 05:15:00
11:35 PM,42.8,26.6,53,30.05,10.0,South,21.9,34.5,N/A,,Overcast,190,2013-12-13 05:35:00
11:55 PM,41.0,26.6,57,30.05,10.0,South,19.6,29.9,N/A,,Overcast,190,2013-12-13 05:55:00